Lumberton, NC

1:53 PM EDT on July 22, 2017 (GMT -0400)
Lumberton Municipal

Weather History for KLBT - November, 2011

Change the Weather History Date:

Friday, November 18, 2011

  Actual Average Record
Temperature  
Mean Temperature 41 °F 54 °F  
Max Temperature 52 °F 67 °F 82 °F (2013)
Min Temperature 30 °F 41 °F 20 °F (2014)
Degree Days  
Heating Degree Days 24 12  
Month to date heating degree days 187 172  
Since 1 July heating degree days 361 304  
Cooling Degree Days 0 0  
Month to date cooling degree days 12 10  
Year to date cooling degree days 2309 1904  
Moisture  
Dew Point 27 °F    
Average Humidity 60    
Maximum Humidity 92    
Minimum Humidity 28    
Precipitation  
Precipitation 0.00 in 0.10 in 0.19 in (2012)
Month to date precipitation 1.05 1.65  
Year to date precipitation 38.45 39.41  
Sea Level Pressure  
Sea Level Pressure 30.45 in    
Wind  
Wind Speed 3 mph (NNE)    
Max Wind Speed 14 mph    
Max Gust Speed 18 mph    
Visibility 10 miles    
Events      
T = Trace of Precipitation, MM = Missing Value Source: NWS Daily Summary

Daily Weather History Graph

Daily Weather History Graph

Search for Another Location

Airport or City:

Trip Planner

Search our weather history database for the weather conditions in past years. The results will help you decide how hot, cold, wet, or windy it might be!

Date:

Astronomy

Nov. 18, 2011 Rise Set
Actual Time 6:52 AM EST 5:09 PM EST
Civil Twilight 6:25 AM EST 5:36 PM EST
Nautical Twilight 5:55 AM EST 6:07 PM EST
Astronomical Twilight 5:25 AM EST 6:37 PM EST
Moon No Moon Rise 12:38 PM EST (11/18)
Length of Visible Light 11h 11m
Length of Day
10h 17m
Waning Gibbous, 49% of the Moon is Illuminated
Nov 18
Waning Gibbous
Nov 25
New
Dec 2
First Quarter
Dec 10
Full
Dec 17
Last Quarter

Hourly Weather History & Observations

Time (EST) Temp. Windchill Dew Point Humidity Pressure Visibility Wind Dir Wind Speed Gust Speed Precip Events Conditions
12:54 AM 39.0 °F 35.7 °F 25.0 °F 57% 30.35 in 10.0 mi North 4.6 mph - N/A   Clear
1:54 AM 34.0 °F - 30.0 °F 85% 30.35 in 10.0 mi Calm Calm - N/A   Clear
3:54 AM 30.9 °F - 28.9 °F 92% 30.39 in 10.0 mi Calm Calm - N/A   Clear
4:54 AM 30.9 °F - 28.0 °F 89% 30.41 in 10.0 mi Calm Calm - N/A   Clear
5:54 AM 30.0 °F - 28.0 °F 92% 30.43 in 10.0 mi Calm Calm - N/A   Clear
6:54 AM 30.0 °F - 28.0 °F 92% 30.45 in 10.0 mi Calm Calm - N/A   Clear
7:54 AM 36.0 °F 32.1 °F 27.0 °F 70% 30.47 in 10.0 mi North 4.6 mph - N/A   Clear
8:54 AM 41.0 °F 35.2 °F 25.0 °F 53% 30.49 in 10.0 mi North 9.2 mph - N/A   Clear
9:54 AM 45.0 °F 39.7 °F 24.1 °F 44% 30.51 in 10.0 mi North 10.4 mph - N/A   Clear
10:54 AM 46.9 °F - 25.0 °F 42% 30.51 in 10.0 mi NE 9.2 mph - N/A   Clear
11:54 AM 48.9 °F - 21.9 °F 35% 30.49 in 10.0 mi North 5.8 mph - N/A   Clear
12:54 PM 50.0 °F - 19.9 °F 31% 30.47 in 10.0 mi NE 6.9 mph - N/A   Clear
1:54 PM 51.1 °F - 19.9 °F 29% 30.46 in 10.0 mi Variable 3.5 mph - N/A   Clear
3:54 PM 51.1 °F - 19.9 °F 29% 30.45 in 10.0 mi East 4.6 mph - N/A   Clear
4:54 PM 48.9 °F - 25.0 °F 39% 30.45 in 10.0 mi Calm Calm - N/A   Clear
5:54 PM 41.0 °F - 32.0 °F 70% 30.46 in 10.0 mi Calm Calm - N/A   Clear
6:54 PM 37.9 °F - 33.1 °F 83% 30.47 in 10.0 mi Calm Calm - N/A   Clear
7:54 PM 36.0 °F - 33.1 °F 89% 30.47 in 10.0 mi Calm Calm - N/A   Clear
8:54 PM 35.1 °F - 30.9 °F 85% 30.48 in 10.0 mi Calm Calm - N/A   Clear
9:54 PM 33.1 °F - 30.9 °F 92% 30.48 in 10.0 mi Calm Calm - N/A   Clear
10:54 PM 33.1 °F - 30.9 °F 92% 30.46 in 10.0 mi Calm Calm - N/A   Clear
11:54 PM 30.9 °F - 30.0 °F 96% 30.46 in 10.0 mi Calm Calm - N/A   Clear